Preview of NWS' New Version of Forecast
This preview is not operational and should not be used for support decisions.

Regional Weather Roundup (RWR)

Issued by National Weather Service (NWS)

                            
000
ASUS45 KBOI 182010
RWRID 

IDAHO REGIONAL WEATHER ROUNDUP
NATIONAL WEATHER SERVICE BOISE ID
100 PM MST FRI JAN 18 2019

NOTE: "FAIR" INDICATES FEW OR NO CLOUDS BELOW 12000 FEET
WITH NO SIGNIFICANT WEATHER AND/OR OBSTRUCTIONS TO VISIBILITY

IDZ012-014-182100-
SOUTHWEST IDAHO

  
CITY           SKY/WX    TMP DP  RH WIND       PRES   REMARKS
BOISE          CLOUDY    44  27  51 N7        30.29F                  
CALDWELL       CLOUDY    45  31  58 N6        30.31S                  
MOUNTAIN HOME  CLOUDY    43  34  69 NW5       30.30S                  
$$

IDZ016-017-182100-
SOUTHCENTRAL IDAHO

  
CITY           SKY/WX    TMP DP  RH WIND       PRES   REMARKS
BURLEY         CLOUDY    38  27  64 W14       30.25R WCI  30          
JEROME         CLOUDY    38  28  67 SW20      30.26R WCI  28          
TWIN FALLS     PTSUNNY   39  25  57 W17       30.27R WCI  30          
$$

IDZ019>023-182100-
SOUTHEAST IDAHO

  
CITY           SKY/WX    TMP DP  RH WIND       PRES   REMARKS
IDAHO FALLS    CLOUDY    32  28  85 SW17      30.20R WCI  21          
POCATELLO      CLOUDY    34  29  82 SW22      30.25R WCI  22          
REXBURG        CLOUDY    32  27  81 S16       30.18S WCI  21          
$$

IDZ006-010-011-018-031-032-182100-
CENTRAL IDAHO MOUNTAINS

  
CITY           SKY/WX    TMP DP  RH WIND       PRES   REMARKS
MCCALL         CLOUDY    32  28  85 S3        30.19S                  
HAILEY         SUNNY     30  25  80 NW8       30.20S WCI  23          
STANLEY          N/A     32  22  66 CALM      30.19S                  
SALMON         CLOUDY    37  27  67 CALM      30.18F                  
CHALLIS        CLOUDY    36  26  67 CALM      30.17R                  
$$

IDZ002-004-006-007-026-182100-
NORTHERN IDAHO

  
CITY           SKY/WX    TMP DP  RH WIND       PRES   REMARKS
LEWISTON       CLOUDY    46  36  68 E7        30.22F                  
LOWELL           N/A     37  35  92 CALM      30.28S                  
COEUR D'ALENE  CLOUDY    37  33  85 SE3       30.19S                  
MULLAN PASS    LGT SNOW  29  23  78 SW9       30.09R WCI  20          
$$